TimeAKDT,TemperatureF,Dew PointF,Humidity,Sea Level PressureIn,VisibilityMPH,Wind Direction,Wind SpeedMPH,Gust SpeedMPH,PrecipitationIn,Events,Conditions,WindDirDegrees,DateUTC
12:08 AM,48.2,46.4,93,29.72,10.0,WSW,5.8,-,N/A,,Overcast,250,2013-08-05 08:08:00
12:53 AM,48.0,46.0,93,29.73,10.0,WSW,5.8,-,N/A,,Overcast,240,2013-08-05 08:53:00
1:51 AM,48.2,46.4,93,29.71,10.0,WSW,8.1,-,N/A,,Overcast,250,2013-08-05 09:51:00
1:53 AM,48.0,46.9,96,29.72,10.0,WSW,6.9,-,N/A,,Overcast,250,2013-08-05 09:53:00
2:10 AM,48.2,46.4,93,29.71,10.0,West,4.6,-,N/A,,Overcast,260,2013-08-05 10:10:00
2:43 AM,46.4,46.4,100,29.71,10.0,WSW,6.9,-,N/A,,Overcast,250,2013-08-05 10:43:00
2:53 AM,46.9,46.9,100,29.71,10.0,WSW,9.2,-,N/A,,Overcast,250,2013-08-05 10:53:00
3:26 AM,46.4,46.4,100,29.71,10.0,West,9.2,-,N/A,,Overcast,260,2013-08-05 11:26:00
3:53 AM,46.9,46.9,100,29.71,10.0,West,8.1,-,N/A,,Overcast,260,2013-08-05 11:53:00
4:53 AM,48.0,48.0,100,29.72,9.0,West,10.4,-,N/A,,Overcast,260,2013-08-05 12:53:00
5:39 AM,46.4,46.4,100,29.72,10.0,West,9.2,-,N/A,,Overcast,260,2013-08-05 13:39:00
5:53 AM,48.0,46.9,96,29.72,10.0,West,9.2,-,N/A,,Overcast,260,2013-08-05 13:53:00
6:53 AM,46.9,46.9,100,29.71,10.0,WSW,8.1,-,N/A,,Overcast,250,2013-08-05 14:53:00
7:39 AM,46.4,46.4,100,29.71,9.0,West,9.2,-,N/A,,Overcast,260,2013-08-05 15:39:00
7:50 AM,46.4,46.4,100,29.71,8.0,West,8.1,-,N/A,,Overcast,260,2013-08-05 15:50:00
7:53 AM,46.9,46.9,100,29.71,8.0,West,8.1,-,N/A,,Overcast,260,2013-08-05 15:53:00
8:35 AM,46.4,46.4,100,29.72,1.8,West,9.2,-,N/A,,Overcast,260,2013-08-05 16:35:00
8:53 AM,48.0,48.0,100,29.71,1.5,West,8.1,-,N/A,,Overcast,260,2013-08-05 16:53:00
8:59 AM,48.2,48.2,100,29.71,3.0,West,6.9,-,N/A,,Overcast,260,2013-08-05 16:59:00
9:13 AM,48.2,48.2,100,29.72,5.0,West,8.1,-,N/A,,Overcast,260,2013-08-05 17:13:00
9:53 AM,50.0,50.0,100,29.72,7.0,West,9.2,-,0.00,,Overcast,260,2013-08-05 17:53:00
10:15 AM,50.0,50.0,100,29.73,2.5,West,11.5,-,0.02,Rain,Light Rain,280,2013-08-05 18:15:00
10:17 AM,50.0,50.0,100,29.73,3.0,West,9.2,-,0.02,Rain,Light Rain,280,2013-08-05 18:17:00
10:25 AM,50.0,50.0,100,29.73,3.0,WNW,11.5,-,0.02,Rain,Light Rain,290,2013-08-05 18:25:00
10:39 AM,51.8,51.8,100,29.73,3.0,WNW,13.8,-,0.03,,Overcast,300,2013-08-05 18:39:00
10:53 AM,53.1,51.1,93,29.73,3.0,WNW,15.0,21.9,0.03,,Overcast,300,2013-08-05 18:53:00
11:24 AM,53.6,50.0,88,29.72,10.0,NW,15.0,20.7,N/A,,Mostly Cloudy,310,2013-08-05 19:24:00
11:45 AM,53.6,50.0,88,29.73,10.0,WNW,12.7,-,N/A,,Mostly Cloudy,300,2013-08-05 19:45:00
11:53 AM,54.0,50.0,86,29.73,10.0,WNW,16.1,-,N/A,,Mostly Cloudy,300,2013-08-05 19:53:00
11:59 AM,53.6,50.0,88,29.73,10.0,WNW,13.8,-,N/A,,Mostly Cloudy,290,2013-08-05 19:59:00
12:30 PM,51.8,48.2,88,29.72,10.0,WNW,16.1,-,N/A,,Mostly Cloudy,300,2013-08-05 20:30:00
12:41 PM,51.8,48.2,88,29.72,10.0,WNW,12.7,-,N/A,,Overcast,290,2013-08-05 20:41:00
12:53 PM,52.0,50.0,93,29.73,10.0,WNW,13.8,-,N/A,,Overcast,290,2013-08-05 20:53:00
1:15 PM,51.8,50.0,94,29.73,4.0,West,12.7,-,N/A,,Overcast,280,2013-08-05 21:15:00
1:53 PM,53.1,52.0,96,29.73,10.0,WNW,15.0,-,0.00,,Mostly Cloudy,300,2013-08-05 21:53:00
2:16 PM,53.6,50.0,88,29.73,10.0,NW,15.0,23.0,N/A,,Mostly Cloudy,310,2013-08-05 22:16:00
2:46 PM,53.6,50.0,88,29.74,10.0,WNW,17.3,23.0,N/A,,Mostly Cloudy,300,2013-08-05 22:46:00
2:53 PM,54.0,50.0,86,29.73,10.0,WNW,17.3,-,N/A,,Mostly Cloudy,300,2013-08-05 22:53:00
3:53 PM,55.0,50.0,83,29.74,10.0,WNW,16.1,-,N/A,,Mostly Cloudy,300,2013-08-05 23:53:00
4:53 PM,55.9,50.0,80,29.74,10.0,NW,17.3,24.2,N/A,,Mostly Cloudy,310,2013-08-06 00:53:00
5:53 PM,55.0,48.9,80,29.75,10.0,WNW,18.4,23.0,N/A,,Overcast,300,2013-08-06 01:53:00
6:53 PM,54.0,50.0,86,29.74,10.0,WNW,17.3,23.0,N/A,,Overcast,300,2013-08-06 02:53:00
7:39 PM,53.6,48.2,82,29.75,10.0,NW,20.7,24.2,N/A,,Overcast,310,2013-08-06 03:39:00
7:53 PM,53.1,48.9,86,29.75,10.0,WNW,17.3,-,N/A,,Overcast,300,2013-08-06 03:53:00
8:53 PM,52.0,48.9,89,29.76,10.0,NW,13.8,23.0,N/A,,Overcast,310,2013-08-06 04:53:00
9:05 PM,51.8,48.2,88,29.75,10.0,WNW,15.0,21.9,N/A,,Overcast,300,2013-08-06 05:05:00
9:53 PM,51.1,48.9,92,29.76,10.0,NW,15.0,-,N/A,,Overcast,310,2013-08-06 05:53:00
10:04 PM,51.8,48.2,88,29.76,10.0,NW,12.7,-,N/A,,Overcast,310,2013-08-06 06:04:00
10:12 PM,51.8,48.2,88,29.75,10.0,NW,16.1,-,N/A,,Overcast,310,2013-08-06 06:12:00
10:53 PM,50.0,48.9,96,29.77,10.0,NW,11.5,-,N/A,,Overcast,320,2013-08-06 06:53:00
11:53 PM,50.0,48.0,93,29.78,10.0,NNW,9.2,-,N/A,,Overcast,330,2013-08-06 07:53:00